Weather in Huahine

French Polynesia     16°44′44″S   151°00′44″W
temp.,
°C
wind,
m/s
gust,
m/s
humid.,
%
clouds,
%
prec.,
mm/h
press.,
hPa
HPBL,
m
7 august, sun
sun723:00+25se111275100 0.5 10151036
02:00+25se12127492 1.0 10131203
05:00+25se121271100 0.3 10131333
08:00+25se12127265 0.6 10151162
11:00+25se1110699 0.1 10151167
14:00+25se10107123 0.1 10141165
17:00+24se12117095 0.1 10131253
20:00+24se11116898 0.2 10151395
8 august, mon
mon823:00+24se11116876 0.1 10151168
02:00+24se10106679 0.1 10131236
05:00+24se10106692 0.0 10131325
08:00+24se886597 0.1 10151392
11:00+24se8867100 0.2 10151175
14:00+24sse886289 0.3 10131265
17:00+24se776285 0.0 10131167
20:00+24se7764100 0.0 10141185
9 august, tue
tue923:00+24se6664100 0.0 10141089
02:00+24se4465100 0.0 1013928
05:00+24se4365100 0.0 1013928
08:00+24se226459 0.0 1015906
11:00+24ese326459 0.0 1015780
14:00+25ene3265100 0.0 1013761
17:00+25ene3270100 0.0 1013706
20:00+25ene337381 0.1 1015681
10 august, wed
wed1023:00+24n45754 0.4 1015716
02:00+24nnw447634 4.0 1014353
05:00+24n44733 2.5 1014522
08:00+25nnw457218 4.9 1016488
11:00+25n55694 1.3 10161004
14:00+25n44720 2.6 1015484
17:00+25nne34691 0.8 1015851
20:00+25ne44730 1.5 1017580
11 august, thu
thu1123:00+25nne45731 0.0 1017780
02:00+25nne34702 0.0 1016782
05:00+25ene447038 0.0 1016866
08:00+25ene45740 0.0 1018798
11:00+26ene55758 0.0 1019819
14:00+26ene66765 0.1 1017849
17:00+26ene67777 0.1 1016841
20:00+26ene77799 0.3 1018806